Hourly Data Report for October 14, 2014

All times are specified in Local Standard Time (LST). Add 1 hour to adjust for Daylight Saving Time where and when it is observed.

ST LEONARD CS
NEW BRUNSWICK

47°09'28.050" N
67°49'55.014" W
245.00 m
810I001
71019
WIY

Download Data

Hourly Data (October 2014)
Hourly Data Report for October 14, 2014
Temp Definition
°C
Dew Point Temp Definition
°C
Rel Hum Definition
%
Wind Dir Definition
10's deg

Wind Spd Definition
km/h
Visibility Definition
km
Stn Press Definition
kPa
Hmdx Definition


Wind Chill Definition


Weather Definition


TIME
00:00 6.8 1.7 70 17 2   99.11     LegendNANA
01:00 5.7 1.7 76 17 1   99.11     LegendNANA
02:00 4.5 1.8 83 17 2   99.12     LegendNANA
03:00 4.5 1.9 83 0 1   99.13     LegendNANA
04:00 3.9 2.3 89 17 1   99.14     LegendNANA
05:00 5.1 3.0 86 18 1   99.16     LegendNANA
06:00 4.5 3.0 90 18 1   99.16     LegendNANA
07:00 5.1 3.6 90 36 1   99.21     LegendNANA
08:00 6.8 4.7 87 0 1   99.18     LegendNANA
09:00 9.1 6.3 83 19 4   99.18     LegendNANA
10:00 12.4 7.4 71 16 4   99.12     LegendNANA
11:00 14.9 9.2 68 19 4   99.08     LegendNANA
12:00 17.3 10.2 63 17 6   98.99     LegendNANA
13:00 18.4 11.2 63 19 6   98.93     LegendNANA
14:00 19.6 11.3 59 18 9   98.82     LegendNANA
15:00 19.1 11.3 61 17 11   98.77     LegendNANA
16:00 19.3 12.1 63 18 8   98.72     LegendNANA
17:00 18.9 12.5 66 17 5   98.72     LegendNANA
18:00 17.2 12.5 74 16 5   98.72     LegendNANA
19:00 16.0 12.4 79 18 6   98.70     LegendNANA
20:00 16.1 12.5 79 19 7   98.73     LegendNANA
21:00 15.1 12.5 84 19 5   98.68     LegendNANA
22:00 15.4 12.9 85 19 4   98.64     LegendNANA
23:00 15.2 13.4 89 18 2   98.59     LegendNANA

Notes on Data Quality.

Legend

  • E = Estimated
  • M = Missing
  • NA = Not Available
  • ‡ = Partner data that is not subject to review by the National Climate Archives
Date modified: